03:41
Airports
History
Links
Donate
Help keep this website running!
PayPal
Bitcoin
This page is community maintained. The information is intended for PC simulator navigation or reference.
Always use approved charts for navigation.
EBHN
EBHNEdited 30-Jun-2011
EBHN (EBHN)
Stabroek, Flemish Region, Belgium (2940)
4
Lat/Lng:51° 18' 54" N / 4° 23' 36" E
51.314999 / 4.393332
Elevation:32'ft / 10mMSL
ID / ICAO:EBHN
Runways:1
Longest:15-33
Grass 596m / 1,954ft
(Edited 2011-06-30) [ Sign in to Edit ]
Nearby Weather03:20 GMT 2017-12-13
Nearby weather at EBAW, Antwerp Deurne located 9.1 nautical miles from EBHN
Altimeter: 29.77
Visibility: 6.2 statute miles
Wind: 11 knots (from 190°)
Temp: 3°c / 37°f
Humidity: 86.7%

METAR: EBAW 130320Z AUTO 19011KT CAVOK 03/01 Q1008

(Powered by phpweather)
Airport Radio Frequencies
Brussels Info: 126.9
Hoevenen Radio: 135
Nearby VORs <50NM
Nearby NDBs
Runway 15 / 33
Dimensions:595.5 x 18.3m 1954' x 60'ft
Surface:Grass
Edge Lights:Medium intensity
Runway 15 [A]Runway 33 [B]
Heading:150°TH 330°TH
Lat:
Lng:
51° 19' 2.49"N
4° 23' 28.46"E
51° 18' 45.5"N
4° 23' 43.53"E
User Notes and Comments
51° 18' 54" N / 4° 23' 36" E
Distance To
Airport ID:
Nearby Airports
(C) Brasschaat 5.1 NM
EBBT ENE 69°
(C) Antwerp Deurne 9.1 NM
EBAW ( WX ) SSE 160°
(C) Woensdrecht 9.5 NM
EHWO ( WX ) NNW 346°
(C) Zoersel 16.0 NM
EBZR ESE 102°
(C) Seppe 18.0 NM
EHSE NNE 22°
(U) WEELDE 25.1 NM
EBWE ENE 77°
(C) Grimbergen 25.3 NM
EBGB S 179°
VFR Chart
Flight Planning at SkyVector.com